Flag for U.S.A. Weather past 2 weeks in Spartanburg, South Carolina, U.S.A.

Now
72 °F

Clear.


Feels Like: 65 °F
Forecast: 70 / 93 °F
Wind: No wind

Location: Spartanburg Memorial

Current Time: Jul 26, 2014 at 5:27:12 AM

Latest Report: Jul 26, 2014 at 4:55 AM


Visibility: 7 mi

Pressure: 30.00 "Hg

Humidity: 100%

Dew point: 72 °F

Location of SpartanburgLocation

Historic Weather in Spartanburg — Graph

°F

Spartanburg temperature yesterday

Maximum temperature yesterday: 88 °F (at 3:55 PM)
Minimum temperature yesterday: 70 °F (at 6:15 AM)
Average temperature yesterday: 79 °F

Past Weeks' High & Low Weather Summary

 TemperatureHumidityPressure
High95 °F (Jul 14, 1:35 PM)100% (Jul 11, 4:35 AM)30.24 "Hg (Jul 11, 4:35 AM)
Low64 °F (Jul 17, 5:15 AM)36% (Jul 12, 3:55 PM)29.78 "Hg (Jul 15, 3:35 PM)
Average77 °F80%30.06 "Hg
* Reported Jul 11 4:35 AM — Jul 26 4:35 AM, Spartanburg, Weather by CustomWeather, © 2014

Note: Actual official high and low records may vary slightly from our data, if they occured in-between our weather recording intervals... More about our weather records

Advertising

Spartanburg weather history for previous 24 hours

 ConditionsComfort  
Time TempWeatherWind HumidityBarometerVisibility
4:35 AM
Jul 26
72 °FClear.No wind100%30.00 "Hg7 mi
4:15 AM72 °FClear.3 mph100%30.01 "Hg7 mi
3:55 AM72 °FClear.No wind100%30.00 "Hg7 mi
3:35 AM72 °FClear.No wind100%30.01 "Hg10 mi
3:15 AM72 °FClear.3 mph100%30.01 "Hg10 mi
2:55 AM72 °FClear.No wind100%30.02 "Hg7 mi
2:35 AM72 °FClear.No wind100%30.02 "Hg7 mi
2:15 AM72 °FClear.No wind100%30.03 "Hg7 mi
1:55 AM73 °FClear.No wind100%30.04 "Hg7 mi
1:35 AM72 °FClear.No wind100%30.04 "Hg7 mi
1:15 AM73 °FClear.No wind100%30.05 "Hg10 mi
12:55 AM73 °FClear.No wind100%30.05 "Hg10 mi
12:35 AM73 °FClear.No wind100%30.05 "Hg10 mi
12:15 AM75 °FClear.No wind94%30.04 "Hg10 mi
11:55 PM
Jul 25
77 °FClear.No wind89%30.02 "Hg10 mi
11:35 PM77 °FClear.5 mph89%30.02 "Hg10 mi
10:55 PM77 °FClear.3 mph89%30.02 "Hg10 mi
10:35 PM77 °FClear.No wind89%30.03 "Hg10 mi
10:15 PM77 °FClear.No wind89%30.03 "Hg10 mi
9:55 PM77 °FClear.No wind83%30.02 "Hg10 mi
9:35 PM77 °FSunny.No wind83%30.01 "Hg10 mi
9:15 PM79 °FSunny.No wind79%30.00 "Hg10 mi
8:55 PM79 °FSunny.No wind79%30.00 "Hg10 mi
8:35 PM81 °FSunny.No wind74%30.00 "Hg10 mi
7:55 PM84 °FSunny.3 mph62%30.00 "Hg10 mi
7:35 PM86 °FSunny.3 mph59%30.00 "Hg10 mi
7:15 PM86 °FSunny.3 mph55%30.00 "Hg10 mi
6:55 PM86 °FScattered clouds.5 mph55%30.00 "Hg10 mi
6:35 PM88 °FSunny.6 mph55%30.00 "Hg10 mi
6:15 PM88 °FSunny.5 mph52%30.00 "Hg10 mi
5:55 PM86 °FScattered clouds.No wind55%30.00 "Hg10 mi
5:35 PM84 °FScattered clouds.No wind62%30.00 "Hg10 mi
5:15 PM86 °FScattered clouds.No wind55%30.00 "Hg10 mi
4:55 PM88 °FScattered clouds.3 mph52%29.99 "Hg10 mi
4:35 PM86 °FSunny.3 mph55%29.98 "Hg10 mi
4:15 PM88 °FSunny.5 mph55%29.99 "Hg10 mi
3:55 PM88 °FSunny.No wind55%30.00 "Hg10 mi
3:35 PM86 °FSunny.3 mph55%30.00 "Hg10 mi
3:15 PM86 °FScattered clouds.6 mph55%30.01 "Hg10 mi
2:55 PM84 °FPartly sunny.6 mph58%30.02 "Hg10 mi
2:35 PM86 °FScattered clouds.6 mph59%30.02 "Hg10 mi
2:15 PM84 °FPartly sunny.6 mph62%30.02 "Hg10 mi
1:55 PM84 °FPartly sunny.5 mph62%30.04 "Hg10 mi
1:35 PM82 °FPartly sunny.3 mph66%30.05 "Hg10 mi
1:15 PM82 °FBroken clouds.3 mph66%30.05 "Hg10 mi
12:55 PM81 °FBroken clouds.6 mph66%30.07 "Hg10 mi
12:35 PM81 °FScattered clouds.3 mph66%30.08 "Hg10 mi
12:15 PM81 °FScattered clouds.3 mph66%30.07 "Hg10 mi
11:55 AM79 °FBroken clouds.6 mph70%30.08 "Hg10 mi
11:35 AM79 °FMostly cloudy.6 mph70%30.07 "Hg10 mi
10:55 AM79 °FPartly sunny.6 mph74%30.07 "Hg10 mi
10:35 AM79 °FPartly sunny.6 mph74%30.07 "Hg10 mi
10:15 AM77 °FSunny.5 mph79%30.07 "Hg10 mi
9:55 AM77 °FSunny.7 mph79%30.07 "Hg10 mi
9:35 AM75 °FScattered clouds.6 mph83%30.07 "Hg10 mi
8:35 AM72 °FScattered clouds.8 mph94%30.06 "Hg10 mi
8:15 AM72 °FScattered clouds.7 mph94%30.06 "Hg10 mi
7:55 AM72 °FBroken clouds.7 mph94%30.06 "Hg10 mi
7:35 AM72 °FScattered clouds.8 mph100%30.04 "Hg10 mi
7:15 AM72 °FPassing clouds.7 mph100%30.04 "Hg10 mi
6:55 AM72 °FPassing clouds.6 mph100%30.04 "Hg10 mi
6:35 AM72 °FPassing clouds.6 mph100%30.03 "Hg10 mi
6:15 AM70 °FClear.5 mph100%30.02 "Hg10 mi
5:55 AM72 °FClear.5 mph100%30.02 "Hg10 mi
5:35 AM72 °FClear.6 mph100%30.01 "Hg10 mi
Weather by CustomWeather, © 2014

See weather overviewHow to use our weather pages